Flag for Canada Weather past 2 weeks in Campbell River, British Columbia, Canada

Now
57 °F

Overcast.


Feels Like: 57 °F
Forecast: 58 / 68 °F
Wind: No wind

Location: Comox

Current Time: Jul 24, 2014 at 4:30:57 AM

Latest Report: Jul 24, 2014 at 4:00 AM


Visibility: 10 mi

Pressure: 29.97 "Hg

Humidity: 94%

Dew point: 55 °F

Location of Campbell RiverLocation

Historic Weather in Campbell River — Graph

°F

Campbell River temperature yesterday

Maximum temperature yesterday: 63 °F (at 1:00 AM)
Minimum temperature yesterday: 57 °F (at 10:00 PM)
Average temperature yesterday: 61 °F

Past Weeks' High & Low Weather Summary

 TemperatureHumidityPressure
High90 °F (Jul 13, 5:00 PM)100% (Jul 24, 1:00 AM)30.15 "Hg (Jul 24, 1:00 AM)
Low54 °F (Jul 10, 5:00 AM)27% (Jul 13, 6:00 PM)29.85 "Hg (Jul 19, 4:00 PM)
Average67 °F63%29.99 "Hg
* Reported Jul 9 3:00 AM — Jul 24 3:00 AM, Campbell River, Weather by CustomWeather, © 2014

Note: Actual official high and low records may vary slightly from our data, if they occured in-between our weather recording intervals... More about our weather records

Advertising

Campbell River weather history for previous 24 hours

 ConditionsComfort  
Time TempWeatherWind HumidityBarometerVisibility
3:00 AM
Jul 24
55 °FSprinkles. Low clouds.2 mph100%29.97 "Hg10 mi
2:00 AM55 °FSprinkles. Mostly cloudy.8 mph100%29.96 "Hg10 mi
1:00 AM55 °FSprinkles. Mostly cloudy.10 mph100%29.96 "Hg10 mi
12:00 AM57 °FSprinkles. Mostly cloudy.10 mph94%29.96 "Hg10 mi
11:00 PM
Jul 23
57 °FSprinkles. Low clouds.5 mph94%29.97 "Hg10 mi
10:00 PM57 °FSprinkles. Overcast.5 mph94%29.96 "Hg10 mi
9:00 PM59 °FSprinkles. Overcast.5 mph82%29.96 "Hg10 mi
8:00 PM63 °FSprinkles. More clouds than sun.No wind94%29.94 "Hg10 mi
7:00 PM63 °FSprinkles. Overcast.No wind88%29.95 "Hg20 mi
6:00 PM63 °FSprinkles. More clouds than sun.2 mph88%29.95 "Hg20 mi
5:53 PMN/ASprinkles.2 mphN/AN/A20 mi
5:00 PM63 °FMore clouds than sun.3 mph88%29.96 "Hg20 mi
4:00 PM63 °FMostly cloudy.3 mph88%29.96 "Hg20 mi
3:00 PM63 °FMostly cloudy.2 mph88%29.97 "Hg20 mi
2:00 PM61 °FSprinkles. Mostly cloudy.3 mph94%29.97 "Hg8 mi
1:00 PM61 °FRain showers. Fog.5 mph94%29.97 "Hg5 mi
12:54 PMN/ARain showers.2 mphN/AN/A5 mi
12:00 PM63 °FMore clouds than sun.6 mph83%29.96 "Hg15 mi
11:51 AMN/AMore clouds than sun.6 mphN/AN/A15 mi
11:00 AM63 °FSprinkles. Mostly cloudy.7 mph88%29.96 "Hg12 mi
10:00 AM63 °FMostly cloudy.7 mph83%29.96 "Hg20 mi
9:00 AM63 °FMostly cloudy.7 mph83%29.96 "Hg20 mi
8:00 AM61 °FMostly cloudy.5 mph88%29.96 "Hg20 mi
7:00 AM61 °FMostly cloudy.6 mph88%29.97 "Hg20 mi
6:00 AM61 °FMostly cloudy.3 mph83%29.97 "Hg20 mi
4:00 AM61 °FMostly cloudy.3 mph83%29.99 "Hg20 mi
Weather by CustomWeather, © 2014

See weather overviewHow to use our weather pages